Location: Newark
(50.0306°N, 2.3272°E)
Time: 00:26:01
(UTC+00:00)

Transit 2A Rocket - Pass Details

Date: 09 December 2019
Orbit: 593 x 910 km, 66.7° (Epoch: 26 January)

Event Time Altitude Azimuth Distance (km) Brightness Sun altitude
Rises 23:52:28 0° 326° (NW) 2,851 - -62.8°
Reaches altitude 10° 23:54:48 10° 334° (NNW) 1,960 - -62.7°
Maximum altitude 23:58:55 39° 44° (NE) 950 - -62.7°
Drops below altitude 10° 00:03:15 10° 114° (ESE) 2,062 - -62.5°
Sets 00:05:45 0° 122° (ESE) 3,020 - -62.5°
